| time (UTC) | temp F | wind direction | speed MPH | gust MPH | rain 1hr in | rain 24hr in | rain mn in | humidity % | barometer mb |
| 20260905081503 | 74 | 42 | 0.0 | 2.0 | 0.00 | 1.68 | 0.00 | 98 | 1013.5 |
| 20260905081003 | 74 | 42 | 1.0 | 2.0 | 0.00 | 1.68 | 0.00 | 98 | 1013.4 |
| 20260905080503 | 74 | 41 | 0.0 | 0.0 | 0.00 | 1.68 | 0.00 | 98 | 1013.5 |
| 20260905080009 | 74 | 51 | 0.0 | 0.0 | 0.00 | 1.68 | 0.00 | 98 | 1013.4 |
| 20260905075506 | 74 | 51 | 0.0 | 0.0 | 0.00 | 1.68 | 0.00 | 98 | 1013.5 |
| 20260905075003 | 74 | 51 | 0.0 | 0.0 | 0.00 | 1.68 | 0.00 | 98 | 1013.4 |
| 20260905074515 | 74 | 51 | 0.0 | 0.0 | 0.00 | 1.68 | 0.00 | 98 | 1013.3 |
| 20260905074006 | 74 | 51 | 0.0 | 0.0 | 0.00 | 1.68 | 0.00 | 98 | 1013.4 |
| 20260905073508 | 74 | 51 | 0.0 | 0.0 | 0.00 | 1.68 | 0.00 | 98 | 1013.4 |
| 20260905073024 | 74 | 51 | 0.0 | 0.0 | 0.00 | 1.68 | 0.00 | 98 | 1013.3 |
| 20260905072511 | 74 | 51 | 0.0 | 0.0 | 0.00 | 1.68 | 0.00 | 98 | 1013.4 |
| 20260905072011 | 74 | 51 | 0.0 | 0.0 | 0.00 | 1.68 | 0.00 | 98 | 1013.5 |
| 20260905071527 | 74 | 93 | 0.0 | 0.0 | 0.00 | 1.68 | 0.00 | 98 | 1013.4 |
| 20260905071016 | 74 | 93 | 0.0 | 0.0 | 0.00 | 1.68 | 0.00 | 98 | 1013.3 |
| 20260905070502 | 74 | 93 | 0.0 | 0.0 | 0.00 | 1.68 | 0.00 | 98 | 1013.4 |
| 20260905070012 | 74 | 80 | 0.0 | 0.0 | 0.00 | 1.68 | 0.00 | 98 | 1013.4 |
| 20260905065502 | 74 | 80 | 0.0 | 0.0 | 0.00 | 1.68 | 0.00 | 98 | 1013.3 |
| 20260905065003 | 74 | 80 | 0.0 | 0.0 | 0.00 | 1.68 | 0.00 | 98 | 1013.2 |
| 20260905064514 | 74 | 178 | 0.0 | 0.0 | 0.00 | 1.68 | 0.00 | 98 | 1013.3 |
| 20260905064003 | 74 | 178 | 0.0 | 0.0 | 0.00 | 1.68 | 0.00 | 98 | 1013.3 |
| 20260905063506 | 75 | 178 | 0.0 | 0.0 | 0.00 | 1.68 | 0.00 | 98 | 1013.4 |
| 20260905063017 | 75 | 178 | 0.0 | 0.0 | 0.00 | 1.68 | 0.00 | 98 | 1013.5 |
| 20260905062507 | 75 | 163 | 0.0 | 0.0 | 0.00 | 1.68 | 0.00 | 98 | 1013.5 |
| 20260905062011 | 75 | 163 | 0.0 | 0.0 | 0.00 | 1.68 | 0.00 | 98 | 1013.5 |
| 20260905061525 | 75 | 163 | 0.0 | 0.0 | 0.00 | 1.68 | 0.00 | 98 | 1013.5 |
| 20260905061011 | 75 | 163 | 0.0 | 0.0 | 0.00 | 1.68 | 0.00 | 98 | 1013.5 |
| 20260905060511 | 75 | 163 | 0.0 | 0.0 | 0.00 | 1.68 | 0.00 | 98 | 1013.6 |
| 20260905060005 | 75 | 163 | 0.0 | 0.0 | 0.00 | 1.68 | 0.00 | 98 | 1013.6 |
| 20260905055505 | 75 | 163 | 0.0 | 0.0 | 0.00 | 1.68 | 0.00 | 98 | 1013.6 |
| 20260905055004 | 75 | 163 | 0.0 | 0.0 | 0.01 | 1.68 | 0.00 | 98 | 1013.6 |
| 20260905054512 | 75 | 163 | 0.0 | 0.0 | 0.01 | 1.68 | 0.00 | 98 | 1013.6 |
| 20260905054007 | 75 | 163 | 0.0 | 0.0 | 0.01 | 1.68 | 0.00 | 98 | 1013.6 |
| 20260905053504 | 75 | 163 | 0.0 | 0.0 | 0.01 | 1.68 | 0.00 | 98 | 1013.6 |
| 20260905053014 | 75 | 163 | 0.0 | 0.0 | 0.01 | 1.68 | 0.00 | 98 | 1013.7 |
| 20260905052507 | 75 | 81 | 0.0 | 0.0 | 0.01 | 1.68 | 0.00 | 98 | 1013.8 |
| 20260905052009 | 75 | 81 | 0.0 | 0.0 | 0.01 | 1.68 | 0.00 | 98 | 1013.9 |
| 20260905051529 | 75 | 81 | 0.0 | 0.0 | 0.01 | 1.68 | 0.00 | 98 | 1013.9 |
| 20260905051010 | 75 | 81 | 0.0 | 0.0 | 0.01 | 1.68 | 0.00 | 98 | 1013.9 |
| 20260905050512 | 75 | 81 | 0.0 | 0.0 | 0.01 | 1.68 | 0.00 | 98 | 1013.9 |
| 20260905050027 | 75 | 81 | 0.0 | 0.0 | 0.01 | 1.68 | 0.00 | 98 | 1013.8 |
| 20260905045515 | 75 | 81 | 0.0 | 0.0 | 0.01 | 1.68 | 1.68 | 98 | 1013.9 |
| 20260905045003 | 75 | 81 | 0.0 | 0.0 | 0.00 | 1.67 | 1.67 | 98 | 1014.0 |
| 20260905044509 | 75 | 81 | 0.0 | 0.0 | 0.00 | 1.67 | 1.67 | 98 | 1014.1 |
| 20260905044004 | 75 | 81 | 0.0 | 0.0 | 0.00 | 1.67 | 1.67 | 98 | 1014.1 |
| 20260905043504 | 75 | 81 | 0.0 | 2.0 | 0.00 | 1.67 | 1.67 | 98 | 1014.1 |
| 20260905043016 | 75 | 81 | 0.0 | 2.0 | 0.00 | 1.67 | 1.67 | 98 | 1014.1 |
| 20260905042508 | 75 | 81 | 1.0 | 3.0 | 0.00 | 1.67 | 1.67 | 98 | 1014.2 |
| 20260905042007 | 75 | 57 | 2.0 | 3.0 | 0.00 | 1.67 | 1.67 | 98 | 1014.3 |
| 20260905041522 | 75 | 57 | 2.0 | 3.0 | 0.00 | 1.67 | 1.67 | 98 | 1014.2 |
| 20260905041009 | 75 | 81 | 2.0 | 4.0 | 0.00 | 1.67 | 1.67 | 98 | 1014.2 |
| 20260905040511 | 75 | 81 | 0.0 | 4.0 | 0.00 | 1.67 | 1.67 | 97 | 1014.2 |
| 20260905040033 | 75 | 57 | 1.0 | 3.0 | 0.00 | 1.67 | 1.67 | 97 | 1014.3 |
| 20260905035514 | 75 | 84 | 1.0 | 4.0 | 0.00 | 1.67 | 1.67 | 97 | 1014.3 |
| 20260905035015 | 75 | 38 | 2.0 | 4.0 | 0.00 | 1.67 | 1.67 | 97 | 1014.3 |
| 20260905034531 | 75 | 59 | 2.0 | 4.0 | 0.00 | 1.67 | 1.67 | 97 | 1014.4 |
| 20260905034003 | 75 | 18 | 1.0 | 3.0 | 0.00 | 1.67 | 1.67 | 98 | 1014.4 |
| 20260905033503 | 75 | 62 | 0.0 | 0.0 | 0.00 | 1.67 | 1.67 | 98 | 1014.6 |
| 20260905033010 | 75 | 36 | 0.0 | 0.0 | 0.00 | 1.67 | 1.67 | 97 | 1014.5 |
| 20260905032502 | 75 | 36 | 0.0 | 0.0 | 0.00 | 1.67 | 1.67 | 97 | 1014.5 |
| 20260905032006 | 75 | 36 | 0.0 | 0.0 | 0.00 | 1.67 | 1.67 | 97 | 1014.6 |
| 20260905031520 | 75 | 36 | 0.0 | 0.0 | 0.00 | 1.67 | 1.67 | 97 | 1014.6 |
| 20260905031008 | 75 | 36 | 0.0 | 3.0 | 0.00 | 1.67 | 1.67 | 97 | 1014.6 |
| 20260905030510 | 75 | 29 | 0.0 | 3.0 | 0.00 | 1.67 | 1.67 | 97 | 1014.7 |
| 20260905030028 | 75 | 59 | 1.0 | 4.0 | 0.00 | 1.67 | 1.67 | 97 | 1014.8 |
| 20260905025512 | 75 | 62 | 2.0 | 4.0 | 0.00 | 1.67 | 1.67 | 97 | 1014.8 |
| 20260905025015 | 75 | 75 | 3.0 | 4.0 | 0.00 | 1.67 | 1.67 | 97 | 1014.9 |
| 20260905024532 | 75 | 92 | 0.0 | 3.0 | 0.00 | 1.67 | 1.67 | 97 | 1014.9 |
| 20260905024016 | 75 | 128 | 0.0 | 0.0 | 0.00 | 1.67 | 1.67 | 97 | 1014.8 |
| 20260905023516 | 75 | 128 | 0.0 | 0.0 | 0.00 | 1.67 | 1.67 | 97 | 1014.9 |
| 20260905023014 | 75 | 128 | 0.0 | 0.0 | 0.00 | 1.67 | 1.67 | 97 | 1014.8 |
| 20260905022506 | 75 | 128 | 0.0 | 0.0 | 0.00 | 1.67 | 1.67 | 97 | 1014.9 |
| 20260905022006 | 75 | 43 | 0.0 | 0.0 | 0.00 | 1.67 | 1.67 | 97 | 1015.1 |
| 20260905021516 | 75 | 43 | 0.0 | 0.0 | 0.00 | 1.67 | 1.67 | 97 | 1015.0 |
| 20260905021009 | 75 | 43 | 0.0 | 0.0 | 0.00 | 1.67 | 1.67 | 97 | 1015.0 |
| 20260905020509 | 75 | 43 | 0.0 | 2.0 | 0.00 | 1.67 | 1.67 | 97 | 1014.9 |
| 20260905020026 | 75 | 43 | 0.0 | 2.0 | 0.00 | 1.67 | 1.67 | 97 | 1014.9 |
| 20260905015512 | 75 | 36 | 1.0 | 2.0 | 0.00 | 1.67 | 1.67 | 97 | 1014.9 |
| 20260905015010 | 75 | 28 | 0.0 | 0.0 | 0.00 | 1.67 | 1.67 | 97 | 1014.9 |
| 20260905014529 | 75 | 84 | 0.0 | 0.0 | 0.00 | 1.67 | 1.67 | 97 | 1014.9 |
| 20260905014014 | 75 | 84 | 0.0 | 0.0 | 0.00 | 1.67 | 1.67 | 97 | 1014.7 |
| 20260905013513 | 75 | 84 | 0.0 | 0.0 | 0.00 | 1.67 | 1.67 | 97 | 1014.6 |
| 20260905013034 | 75 | 84 | 0.0 | 0.0 | 0.00 | 1.67 | 1.67 | 97 | 1014.6 |
| 20260905012514 | 75 | 84 | 0.0 | 0.0 | 0.00 | 1.67 | 1.67 | 97 | 1014.5 |
| 20260905012004 | 75 | 84 | 0.0 | 0.0 | 0.00 | 1.67 | 1.67 | 97 | 1014.3 |
| 20260905011516 | 75 | 84 | 0.0 | 0.0 | 0.00 | 1.67 | 1.67 | 97 | 1014.2 |
| 20260905011007 | 76 | 84 | 0.0 | 0.0 | 0.00 | 1.67 | 1.67 | 97 | 1014.3 |
| 20260905010508 | 76 | 84 | 0.0 | 0.0 | 0.00 | 1.67 | 1.67 | 97 | 1014.2 |
| 20260905010021 | 76 | 84 | 0.0 | 0.0 | 0.00 | 1.67 | 1.67 | 97 | 1014.2 |
| 20260905005508 | 75 | 84 | 0.0 | 0.0 | 0.00 | 1.67 | 1.67 | 97 | 1014.2 |
| 20260905005011 | 76 | 84 | 0.0 | 0.0 | 0.00 | 1.67 | 1.67 | 97 | 1014.2 |
| 20260905004527 | 76 | 84 | 0.0 | 0.0 | 0.00 | 1.67 | 1.67 | 97 | 1014.3 |
| 20260905004017 | 76 | 84 | 0.0 | 0.0 | 0.00 | 1.67 | 1.67 | 97 | 1014.4 |
| 20260905003514 | 76 | 84 | 0.0 | 2.0 | 0.00 | 1.67 | 1.67 | 97 | 1014.4 |
| 20260905003033 | 76 | 84 | 0.0 | 2.0 | 0.00 | 1.67 | 1.67 | 97 | 1014.4 |
| 20260905002516 | 76 | 84 | 0.0 | 2.0 | 0.00 | 1.67 | 1.67 | 97 | 1014.5 |
| 20260905002017 | 76 | 84 | 1.0 | 2.0 | 0.00 | 1.67 | 1.67 | 97 | 1014.4 |
| 20260905001537 | 76 | 84 | 0.0 | 0.0 | 0.00 | 1.67 | 1.67 | 97 | 1014.3 |
| 20260905001003 | 76 | 84 | 0.0 | 1.0 | 0.00 | 1.67 | 1.67 | 97 | 1014.2 |
| 20260905000503 | 76 | 63 | 0.0 | 1.0 | 0.00 | 1.67 | 1.67 | 97 | 1014.2 |
| 20260905000026 | 76 | 350 | 0.0 | 2.0 | 0.00 | 1.67 | 1.67 | 97 | 1014.1 |
| 20260904235509 | 76 | 162 | 0.0 | 2.0 | 0.00 | 1.67 | 1.67 | 97 | 1014.1 |
| 20260904235008 | 76 | 321 | 0.0 | 2.0 | 0.00 | 1.67 | 1.67 | 97 | 1014.1 |
| 20260904234524 | 76 | 85 | 0.0 | 1.0 | 0.00 | 1.67 | 1.67 | 97 | 1014.2 |
| 20260904234013 | 76 | 200 | 0.0 | 0.0 | 0.00 | 1.67 | 1.67 | 97 | 1014.2 |
| 20260904233512 | 76 | 311 | 0.0 | 0.0 | 0.00 | 1.67 | 1.67 | 97 | 1014.2 |
| 20260904233004 | 76 | 311 | 0.0 | 0.0 | 0.00 | 1.67 | 1.67 | 97 | 1014.2 |
| 20260904232501 | 76 | 151 | 0.0 | 0.0 | 0.00 | 1.67 | 1.67 | 97 | 1014.1 |
| 20260904232003 | 76 | 151 | 0.0 | 0.0 | 0.00 | 1.67 | 1.67 | 97 | 1014.0 |
| 20260904231513 | 76 | 151 | 0.0 | 0.0 | 0.01 | 1.67 | 1.67 | 97 | 1014.0 |
| 20260904231003 | 76 | 151 | 0.0 | 0.0 | 0.01 | 1.67 | 1.67 | 97 | 1013.9 |
| 20260904230504 | 76 | 151 | 0.0 | 2.0 | 0.02 | 1.67 | 1.67 | 97 | 1013.9 |
| 20260904230041 | 76 | 151 | 0.0 | 2.0 | 0.03 | 1.67 | 1.67 | 97 | 1013.9 |
| 20260904225508 | 75 | 196 | 1.0 | 2.0 | 0.04 | 1.67 | 1.67 | 97 | 1013.8 |
| 20260904225010 | 75 | 173 | 0.0 | 2.0 | 0.05 | 1.67 | 1.67 | 97 | 1013.8 |
| 20260904224520 | 75 | 173 | 0.0 | 2.0 | 0.06 | 1.67 | 1.67 | 97 | 1013.8 |
| 20260904224010 | 75 | 197 | 1.0 | 2.0 | 0.07 | 1.67 | 1.67 | 97 | 1013.9 |
| 20260904223514 | 75 | 179 | 0.0 | 2.0 | 0.08 | 1.67 | 1.67 | 97 | 1013.9 |
| 20260904223027 | 75 | 172 | 1.0 | 2.0 | 0.09 | 1.67 | 1.67 | 97 | 1014.1 |
| 20260904222516 | 75 | 163 | 1.0 | 4.0 | 0.10 | 1.67 | 1.67 | 97 | 1014.0 |
| 20260904222003 | 75 | 121 | 1.0 | 4.0 | 0.11 | 1.67 | 1.67 | 97 | 1013.9 |
| 20260904221510 | 75 | 103 | 1.0 | 3.0 | 0.10 | 1.66 | 1.66 | 97 | 1013.9 |
| 20260904221003 | 75 | 57 | 1.0 | 3.0 | 0.11 | 1.66 | 1.66 | 97 | 1013.9 |
| 20260904220504 | 75 | 82 | 2.0 | 3.0 | 0.10 | 1.65 | 1.65 | 97 | 1014.1 |
| 20260904220014 | 75 | 57 | 0.0 | 3.0 | 0.10 | 1.64 | 1.64 | 97 | 1014.0 |
| 20260904215508 | 75 | 87 | 1.0 | 3.0 | 0.09 | 1.63 | 1.63 | 97 | 1014.0 |
| 20260904215009 | 75 | 111 | 1.0 | 2.0 | 0.08 | 1.62 | 1.62 | 97 | 1014.1 |
| 20260904214518 | 75 | 111 | 1.0 | 2.0 | 0.08 | 1.61 | 1.61 | 97 | 1014.1 |
| 20260904214011 | 75 | 111 | 1.0 | 2.0 | 0.07 | 1.60 | 1.60 | 97 | 1014.1 |
| 20260904213512 | 75 | 103 | 2.0 | 2.0 | 0.07 | 1.59 | 1.59 | 97 | 1014.1 |
| 20260904213027 | 75 | 107 | 1.0 | 2.0 | 0.07 | 1.58 | 1.58 | 97 | 1014.1 |
| 20260904212513 | 75 | 158 | 0.0 | 2.0 | 0.08 | 1.57 | 1.57 | 97 | 1014.0 |
| 20260904212015 | 75 | 158 | 0.0 | 2.0 | 0.09 | 1.56 | 1.56 | 97 | 1014.0 |
| 20260904211530 | 75 | 140 | 1.0 | 2.0 | 0.12 | 1.56 | 1.56 | 97 | 1014.1 |
| 20260904211003 | 75 | 23 | 1.0 | 3.0 | 0.15 | 1.55 | 1.55 | 97 | 1014.1 |
| 20260904210504 | 75 | 43 | 1.0 | 3.0 | 0.20 | 1.55 | 1.55 | 97 | 1014.2 |
| 20260904210019 | 74 | 9 | 1.0 | 2.0 | 0.24 | 1.54 | 1.54 | 97 | 1014.2 |
| 20260904205506 | 74 | 55 | 0.0 | 0.0 | 0.30 | 1.54 | 1.54 | 97 | 1014.2 |
| 20260904205007 | 74 | 352 | 0.0 | 2.0 | 0.37 | 1.54 | 1.54 | 97 | 1014.1 |
| 20260904204516 | 74 | 352 | 0.0 | 4.0 | 0.43 | 1.53 | 1.53 | 97 | 1014.0 |
| 20260904204008 | 74 | 38 | 1.0 | 5.0 | 0.50 | 1.53 | 1.53 | 96 | 1014.1 |
| 20260904203511 | 74 | 67 | 2.0 | 5.0 | 0.57 | 1.52 | 1.52 | 96 | 1014.1 |
| 20260904203025 | 74 | 85 | 3.0 | 5.0 | 0.65 | 1.51 | 1.51 | 96 | 1014.2 |
| 20260904202510 | 74 | 73 | 1.0 | 3.0 | 0.73 | 1.49 | 1.49 | 97 | 1014.2 |
| 20260904202014 | 74 | 58 | 0.0 | 3.0 | 0.80 | 1.47 | 1.47 | 97 | 1014.1 |
| 20260904201529 | 74 | 58 | 0.0 | 5.0 | 0.89 | 1.44 | 1.44 | 96 | 1014.3 |
| 20260904201014 | 73 | 42 | 2.0 | 5.0 | 0.94 | 1.40 | 1.40 | 96 | 1014.4 |
| 20260904200502 | 73 | 352 | 3.0 | 5.0 | 0.99 | 1.35 | 1.35 | 96 | 1014.5 |
| 20260904200027 | 73 | 5 | 2.0 | 3.0 | 1.04 | 1.30 | 1.30 | 96 | 1014.8 |
| 20260904195505 | 73 | 352 | 1.0 | 4.0 | 1.08 | 1.24 | 1.24 | 96 | 1014.9 |
| 20260904195011 | 73 | 17 | 2.0 | 4.0 | 1.09 | 1.16 | 1.16 | 96 | 1014.7 |
| 20260904194517 | 73 | 70 | 1.0 | 4.0 | 1.08 | 1.10 | 1.10 | 96 | 1014.6 |
| 20260904194010 | 72 | 5 | 0.0 | 9.0 | 1.02 | 1.03 | 1.03 | 96 | 1014.4 |
| 20260904193510 | 72 | 83 | 3.0 | 9.0 | 0.94 | 0.95 | 0.95 | 95 | 1014.6 |
| 20260904193021 | 72 | 82 | 4.0 | 7.0 | 0.85 | 0.86 | 0.86 | 95 | 1014.6 |
| 20260904192514 | 72 | 67 | 1.0 | 8.0 | 0.75 | 0.76 | 0.76 | 95 | 1014.7 |
| 20260904192012 | 73 | 107 | 4.0 | 9.0 | 0.66 | 0.67 | 0.67 | 95 | 1015.1 |
| 20260904191529 | 73 | 73 | 7.0 | 10.0 | 0.54 | 0.55 | 0.55 | 94 | 1015.2 |
| 20260904191017 | 73 | 119 | 4.0 | 11.0 | 0.45 | 0.46 | 0.46 | 94 | 1015.3 |
| 20260904190514 | 74 | 160 | 7.0 | 14.0 | 0.35 | 0.36 | 0.36 | 94 | 1015.2 |
| 20260904190029 | 74 | 173 | 6.0 | 14.0 | 0.24 | 0.25 | 0.25 | 94 | 1015.4 |
| 20260904185505 | 74 | 200 | 7.0 | 20.0 | 0.15 | 0.16 | 0.16 | 93 | 1015.4 |
| 20260904185007 | 75 | 203 | 7.0 | 26.0 | 0.07 | 0.08 | 0.08 | 90 | 1015.2 |
| 20260904184513 | 77 | 192 | 11.0 | 26.0 | 0.01 | 0.02 | 0.02 | 86 | 1015.4 |
| 20260904184007 | 80 | 151 | 7.0 | 18.0 | 0.00 | 0.01 | 0.01 | 83 | 1015.2 |
| 20260904183511 | 83 | 146 | 6.0 | 17.0 | 0.00 | 0.01 | 0.01 | 83 | 1015.3 |
| 20260904183017 | 84 | 195 | 0.0 | 3.0 | 0.00 | 0.01 | 0.01 | 83 | 1015.1 |
| 20260904182513 | 84 | 256 | 1.0 | 5.0 | 0.00 | 0.01 | 0.01 | 81 | 1014.9 |
| 20260904182016 | 84 | 341 | 2.0 | 11.0 | 0.00 | 0.01 | 0.01 | 81 | 1014.5 |
| 20260904181530 | 85 | 327 | 3.0 | 11.0 | 0.00 | 0.01 | 0.01 | 80 | 1014.1 |
| 20260904181020 | 84 | 31 | 4.0 | 11.0 | 0.00 | 0.01 | 0.01 | 83 | 1014.2 |
| 20260904180514 | 84 | 329 | 5.0 | 11.0 | 0.00 | 0.01 | 0.01 | 83 | 1014.2 |
| 20260904180028 | 85 | 28 | 5.0 | 11.0 | 0.00 | 0.01 | 0.01 | 82 | 1014.4 |
| 20260904175514 | 86 | 349 | 6.0 | 10.0 | 0.00 | 0.01 | 0.01 | 80 | 1014.5 |
| 20260904175015 | 86 | 344 | 3.0 | 9.0 | 0.00 | 0.01 | 0.01 | 82 | 1014.6 |
| 20260904174515 | 85 | 13 | 2.0 | 9.0 | 0.01 | 0.01 | 0.01 | 84 | 1014.6 |
| 20260904174006 | 84 | 40 | 3.0 | 8.0 | 0.01 | 0.01 | 0.01 | 84 | 1014.7 |
| 20260904173507 | 84 | 28 | 4.0 | 8.0 | 0.01 | 0.01 | 0.01 | 84 | 1014.9 |
| 20260904173017 | 84 | 319 | 5.0 | 9.0 | 0.01 | 0.01 | 0.01 | 85 | 1014.8 |
| 20260904172510 | 84 | 74 | 4.0 | 11.0 | 0.01 | 0.01 | 0.01 | 84 | 1014.9 |
| 20260904172010 | 84 | 352 | 5.0 | 11.0 | 0.01 | 0.01 | 0.01 | 84 | 1015.1 |
| 20260904171527 | 84 | 360 | 5.0 | 10.0 | 0.01 | 0.01 | 0.01 | 86 | 1015.3 |
| 20260904171011 | 84 | 329 | 3.0 | 6.0 | 0.01 | 0.01 | 0.01 | 85 | 1015.4 |
| 20260904170513 | 84 | 346 | 3.0 | 5.0 | 0.01 | 0.01 | 0.01 | 86 | 1015.4 |
| 20260904170043 | 85 | 334 | 3.0 | 4.0 | 0.01 | 0.01 | 0.01 | 87 | 1015.5 |
| 20260904165516 | 85 | 292 | 2.0 | 4.0 | 0.01 | 0.01 | 0.01 | 85 | 1015.5 |
| 20260904165014 | 85 | 271 | 0.0 | 5.0 | 0.01 | 0.01 | 0.01 | 84 | 1015.6 |
| 20260904164533 | 85 | 169 | 2.0 | 6.0 | 0.00 | 0.00 | 0.00 | 82 | 1015.7 |
| 20260904164015 | 85 | 159 | 3.0 | 6.0 | 0.00 | 0.00 | 0.00 | 80 | 1015.7 |
| 20260904163506 | 86 | 115 | 0.0 | 0.0 | 0.00 | 0.00 | 0.00 | 80 | 1015.8 |
| 20260904163017 | 86 | 267 | 0.0 | 4.0 | 0.00 | 0.00 | 0.00 | 80 | 1015.7 |
| 20260904162508 | 86 | 311 | 0.0 | 4.0 | 0.00 | 0.00 | 0.00 | 82 | 1015.7 |
| 20260904162010 | 86 | 53 | 1.0 | 5.0 | 0.00 | 0.00 | 0.00 | 82 | 1015.8 |
| 20260904161523 | 86 | 36 | 3.0 | 5.0 | 0.00 | 0.00 | 0.00 | 80 | 1015.8 |
| 20260904161015 | 86 | 33 | 2.0 | 4.0 | 0.00 | 0.00 | 0.00 | 80 | 1015.8 |
| 20260904160513 | 86 | 76 | 2.0 | 6.0 | 0.00 | 0.00 | 0.00 | 79 | 1015.8 |
| 20260904160028 | 86 | 109 | 3.0 | 5.0 | 0.00 | 0.00 | 0.00 | 77 | 1015.7 |
| 20260904155515 | 86 | 88 | 2.0 | 5.0 | 0.00 | 0.00 | 0.00 | 81 | 1015.7 |
| 20260904155016 | 86 | 91 | 2.0 | 5.0 | 0.00 | 0.00 | 0.00 | 78 | 1015.7 |
| 20260904154531 | 86 | 98 | 2.0 | 3.0 | 0.00 | 0.00 | 0.00 | 81 | 1015.6 |
| 20260904154017 | 85 | 88 | 0.0 | 0.0 | 0.00 | 0.00 | 0.00 | 78 | 1015.6 |
| 20260904153516 | 85 | 42 | 0.0 | 0.0 | 0.00 | 0.00 | 0.00 | 80 | 1015.6 |
| 20260904153032 | 85 | 42 | 0.0 | 3.0 | 0.00 | 0.00 | 0.00 | 79 | 1015.5 |
| 20260904152507 | 85 | 42 | 1.0 | 3.0 | 0.00 | 0.00 | 0.00 | 80 | 1015.5 |
| 20260904152006 | 85 | 113 | 1.0 | 6.0 | 0.00 | 0.00 | 0.00 | 81 | 1015.5 |
| 20260904151520 | 85 | 130 | 3.0 | 6.0 | 0.00 | 0.00 | 0.00 | 80 | 1015.5 |
| 20260904151012 | 85 | 27 | 1.0 | 3.0 | 0.00 | 0.00 | 0.00 | 83 | 1015.5 |
| 20260904150512 | 84 | 118 | 2.0 | 3.0 | 0.00 | 0.00 | 0.00 | 83 | 1015.4 |
| 20260904150033 | 84 | 142 | 3.0 | 4.0 | 0.00 | 0.00 | 0.00 | 83 | 1015.4 |
| 20260904145514 | 84 | 102 | 0.0 | 4.0 | 0.00 | 0.00 | 0.00 | 84 | 1015.4 |
| 20260904145017 | 84 | 92 | 2.0 | 3.0 | 0.00 | 0.00 | 0.00 | 86 | 1015.4 |
| 20260904144507 | 84 | 137 | 1.0 | 4.0 | 0.00 | 0.00 | 0.00 | 85 | 1015.3 |
| 20260904144004 | 83 | 119 | 1.0 | 5.0 | 0.00 | 0.00 | 0.00 | 86 | 1015.3 |
| 20260904143505 | 83 | 129 | 2.0 | 5.0 | 0.00 | 0.00 | 0.00 | 85 | 1015.2 |
| 20260904143011 | 83 | 97 | 2.0 | 4.0 | 0.00 | 0.00 | 0.00 | 86 | 1015.3 |
| 20260904142506 | 83 | 76 | 1.0 | 5.0 | 0.00 | 0.00 | 0.00 | 87 | 1015.2 |
| 20260904142009 | 83 | 129 | 2.0 | 8.0 | 0.00 | 0.00 | 0.00 | 85 | 1015.3 |
| 20260904141517 | 83 | 101 | 3.0 | 8.0 | 0.00 | 0.00 | 0.00 | 86 | 1015.3 |
| 20260904141009 | 83 | 67 | 2.0 | 5.0 | 0.00 | 0.00 | 0.00 | 86 | 1015.3 |
| 20260904140510 | 82 | 87 | 0.0 | 4.0 | 0.00 | 0.00 | 0.00 | 87 | 1015.3 |
| 20260904140025 | 82 | 105 | 1.0 | 4.0 | 0.00 | 0.00 | 0.00 | 87 | 1015.3 |
| 20260904135513 | 82 | 111 | 2.0 | 4.0 | 0.00 | 0.00 | 0.00 | 87 | 1015.3 |
| 20260904135014 | 82 | 114 | 2.0 | 4.0 | 0.00 | 0.00 | 0.00 | 88 | 1015.3 |
| 20260904134531 | 81 | 98 | 1.0 | 5.0 | 0.00 | 0.00 | 0.00 | 89 | 1015.3 |
| 20260904134016 | 81 | 105 | 2.0 | 6.0 | 0.00 | 0.00 | 0.00 | 90 | 1015.2 |
| 20260904133503 | 80 | 127 | 4.0 | 6.0 | 0.00 | 0.00 | 0.00 | 90 | 1015.3 |
| 20260904133009 | 80 | 78 | 2.0 | 5.0 | 0.00 | 0.00 | 0.00 | 91 | 1015.3 |
| 20260904132505 | 80 | 107 | 3.0 | 6.0 | 0.00 | 0.00 | 0.00 | 90 | 1015.4 |
| 20260904132002 | 80 | 103 | 2.0 | 6.0 | 0.00 | 0.00 | 0.00 | 90 | 1015.3 |
| 20260904131518 | 80 | 129 | 2.0 | 6.0 | 0.00 | 0.00 | 0.00 | 91 | 1015.4 |
| 20260904131009 | 80 | 132 | 3.0 | 6.0 | 0.00 | 0.00 | 0.00 | 90 | 1015.4 |
| 20260904130509 | 80 | 86 | 2.0 | 6.0 | 0.00 | 0.00 | 0.00 | 91 | 1015.4 |
| 20260904130020 | 79 | 101 | 2.0 | 4.0 | 0.00 | 0.00 | 0.00 | 91 | 1015.3 |
| 20260904125513 | 79 | 94 | 3.0 | 5.0 | 0.00 | 0.00 | 0.00 | 91 | 1015.2 |
| 20260904125016 | 79 | 88 | 2.0 | 5.0 | 0.00 | 0.00 | 0.00 | 91 | 1015.2 |
| 20260904124528 | 79 | 69 | 3.0 | 5.0 | 0.00 | 0.00 | 0.00 | 91 | 1015.2 |
| 20260904124013 | 79 | 54 | 3.0 | 4.0 | 0.00 | 0.00 | 0.00 | 92 | 1015.2 |
| 20260904123519 | 78 | 82 | 3.0 | 4.0 | 0.00 | 0.00 | 0.00 | 93 | 1015.2 |
| 20260904123008 | 78 | 83 | 2.0 | 4.0 | 0.00 | 0.00 | 0.00 | 93 | 1015.2 |
| 20260904122505 | 78 | 69 | 0.0 | 0.0 | 0.00 | 0.00 | 0.00 | 93 | 1015.1 |
| 20260904122005 | 77 | 65 | 0.0 | 2.0 | 0.00 | 0.00 | 0.00 | 94 | 1015.1 |
| 20260904121514 | 77 | 90 | 0.0 | 3.0 | 0.00 | 0.00 | 0.00 | 94 | 1015.0 |
| 20260904121008 | 77 | 90 | 1.0 | 3.0 | 0.00 | 0.00 | 0.00 | 94 | 1015.0 |
| 20260904120510 | 77 | 77 | 1.0 | 3.0 | 0.00 | 0.00 | 0.00 | 94 | 1014.8 |
| 20260904120027 | 76 | 71 | 0.0 | 2.0 | 0.00 | 0.00 | 0.00 | 95 | 1014.9 |
| 20260904115510 | 76 | 146 | 0.0 | 2.0 | 0.00 | 0.00 | 0.00 | 95 | 1014.9 |
| 20260904115013 | 76 | 69 | 0.0 | 2.0 | 0.00 | 0.00 | 0.00 | 96 | 1014.8 |
| 20260904114528 | 76 | 37 | 0.0 | 0.0 | 0.00 | 0.00 | 0.00 | 96 | 1014.6 |
| 20260904114015 | 76 | 59 | 0.0 | 0.0 | 0.00 | 0.00 | 0.00 | 95 | 1014.5 |
| 20260904113514 | 76 | 93 | 0.0 | 0.0 | 0.00 | 0.00 | 0.00 | 95 | 1014.5 |
| 20260904113032 | 76 | 93 | 0.0 | 0.0 | 0.00 | 0.00 | 0.00 | 95 | 1014.4 |
| 20260904112517 | 76 | 84 | 0.0 | 0.0 | 0.00 | 0.00 | 0.00 | 95 | 1014.4 |
| 20260904112004 | 76 | 84 | 0.0 | 0.0 | 0.00 | 0.00 | 0.00 | 95 | 1014.4 |
| 20260904111514 | 76 | 65 | 0.0 | 1.0 | 0.00 | 0.00 | 0.00 | 95 | 1014.2 |
| 20260904111006 | 76 | 67 | 0.0 | 3.0 | 0.00 | 0.00 | 0.00 | 95 | 1014.3 |
| 20260904110509 | 76 | 80 | 1.0 | 3.0 | 0.00 | 0.00 | 0.00 | 95 | 1014.3 |
| 20260904110021 | 76 | 34 | 0.0 | 3.0 | 0.00 | 0.00 | 0.00 | 95 | 1014.3 |
| 20260904105510 | 76 | 46 | 1.0 | 4.0 | 0.00 | 0.00 | 0.00 | 95 | 1014.3 |
| 20260904105013 | 76 | 39 | 1.0 | 4.0 | 0.00 | 0.00 | 0.00 | 95 | 1014.3 |
| 20260904104527 | 76 | 45 | 0.0 | 4.0 | 0.00 | 0.00 | 0.00 | 95 | 1014.3 |
| 20260904104016 | 76 | 66 | 0.0 | 0.0 | 0.00 | 0.00 | 0.00 | 95 | 1014.4 |
| 20260904103514 | 76 | 74 | 0.0 | 0.0 | 0.00 | 0.00 | 0.00 | 95 | 1014.4 |
| 20260904103030 | 76 | 59 | 0.0 | 1.0 | 0.00 | 0.00 | 0.00 | 95 | 1014.3 |
| 20260904102517 | 76 | 28 | 0.0 | 3.0 | 0.00 | 0.00 | 0.00 | 95 | 1014.3 |
| 20260904102018 | 76 | 55 | 1.0 | 4.0 | 0.00 | 0.00 | 0.00 | 95 | 1014.3 |
| 20260904101533 | 76 | 33 | 1.0 | 4.0 | 0.00 | 0.00 | 0.00 | 95 | 1014.2 |
| 20260904101007 | 76 | 38 | 0.0 | 2.0 | 0.00 | 0.00 | 0.00 | 96 | 1014.2 |
| 20260904100510 | 76 | 9 | 0.0 | 0.0 | 0.00 | 0.00 | 0.00 | 96 | 1014.2 |
| 20260904100026 | 76 | 22 | 0.0 | 2.0 | 0.00 | 0.00 | 0.00 | 96 | 1014.2 |
| 20260904095512 | 76 | 43 | 0.0 | 2.0 | 0.00 | 0.00 | 0.00 | 96 | 1014.2 |
| 20260904095009 | 76 | 28 | 0.0 | 2.0 | 0.00 | 0.00 | 0.00 | 96 | 1014.2 |
| 20260904094526 | 77 | 28 | 1.0 | 2.0 | 0.00 | 0.00 | 0.00 | 96 | 1014.2 |
| 20260904094010 | 77 | 11 | 0.0 | 2.0 | 0.00 | 0.00 | 0.00 | 96 | 1014.2 |
| 20260904093514 | 77 | 11 | 0.0 | 0.0 | 0.00 | 0.00 | 0.00 | 96 | 1014.2 |
| 20260904093051 | 77 | 11 | 0.0 | 0.0 | 0.00 | 0.00 | 0.00 | 96 | 1014.1 |
| 20260904092516 | 77 | 58 | 0.0 | 0.0 | 0.00 | 0.00 | 0.00 | 96 | 1014.1 |
| 20260904092015 | 77 | 58 | 0.0 | 0.0 | 0.00 | 0.00 | 0.00 | 96 | 1014.1 |
| 20260904091534 | 77 | 58 | 0.0 | 2.0 | 0.00 | 0.00 | 0.00 | 96 | 1014.1 |
| 20260904091015 | 77 | 59 | 0.0 | 2.0 | 0.00 | 0.00 | 0.00 | 96 | 1014.1 |
| 20260904090516 | 77 | 348 | 0.0 | 0.0 | 0.00 | 0.00 | 0.00 | 96 | 1014.1 |
| 20260904090014 | 76 | 348 | 0.0 | 0.0 | 0.00 | 0.00 | 0.00 | 96 | 1014.0 |
| 20260904085506 | 76 | 348 | 0.0 | 0.0 | 0.00 | 0.00 | 0.00 | 96 | 1014.0 |
| 20260904085008 | 76 | 348 | 0.0 | 0.0 | 0.00 | 0.00 | 0.00 | 95 | 1014.1 |
| 20260904084524 | 77 | 348 | 0.0 | 0.0 | 0.00 | 0.00 | 0.00 | 96 | 1014.0 |
| 20260904084010 | 77 | 348 | 0.0 | 0.0 | 0.00 | 0.00 | 0.00 | 96 | 1013.9 |
| 20260904083513 | 77 | 13 | 0.0 | 0.0 | 0.00 | 0.00 | 0.00 | 96 | 1013.9 |
| 20260904083026 | 77 | 22 | 0.0 | 0.0 | 0.00 | 0.00 | 0.00 | 96 | 1013.9 |
| 20260904082515 | 77 | 5 | 0.0 | 0.0 | 0.00 | 0.00 | 0.00 | 96 | 1013.9 |
| 20260904082011 | 77 | 5 | 0.0 | 0.0 | 0.00 | 0.00 | 0.00 | 96 | 1013.8 |